Вернуться в каталог

AMC-4

GE-4

АктивенСвязьGEO
NORAD 25954·PAYLOAD·🇱🇺 Luxembourg

Запущен Nov 13, 1999 с Guiana Space Centre

Loading…

TLE

СвежийSource: Space-Track

Эпоха: Sep 14, 2026, 13:18 UTC

1 25954U 99060A   26257.55451747  .00000023  00000-0  00000-0 0  9994
2 25954   5.4782  72.7738 0005480 142.3853 233.9911  0.99131385 44308

Отслеживайте AMC-4 в реальном времени с AllMySat

Download on the App Store